Location: Pine Mountain Observatory
(43.7910°N, 120.9377°W)
Time: 02:22:32
(UTC-07:00)

Vanguard 2 - All Passes

Search period start: 19 May 2019 00:00
Search period end: 29 May 2019 00:00
Orbit: 553 x 2939 km, 32.9° (Epoch: 18 May)

Date Brightness Start Highest point End Pass type
(mag) Time Alt. Az. Time Alt. Az. Time Alt. Az.
19 May - 00:35:38 10° WSW 00:41:07 19° SW 00:45:14 10° S visible
19 May - 16:11:51 10° S 16:21:31 18° SE 16:30:03 10° ESE daylight
19 May - 18:17:32 10° SW 18:31:49 36° SSE 18:42:13 10° E daylight
19 May - 20:28:19 10° WSW 20:42:01 47° S 20:50:44 10° ESE daylight
19 May - 22:40:48 10° W 22:51:07 38° SSW 22:57:40 10° SE visible
20 May - 00:54:37 10° WSW 00:58:27 14° SW 01:01:37 10° S visible
20 May - 16:27:02 10° S 16:39:11 23° SSE 16:49:33 10° ESE daylight
20 May - 18:34:39 10° SW 18:49:40 41° SSE 19:00:20 10° E daylight
20 May - 20:46:09 10° WSW 20:59:52 48° S 21:08:30 10° ESE visible
20 May - 22:58:58 10° W 23:08:44 33° SSW 23:15:04 10° SE visible
21 May - 14:46:33 10° SE 14:46:56 10° SE 14:47:19 10° SE daylight
21 May - 16:43:04 10° SSW 16:56:53 29° SSE 17:08:21 10° E daylight
21 May - 18:52:02 10° SW 19:07:32 46° SSE 19:18:19 10° E daylight
21 May - 21:04:06 10° WSW 21:17:41 48° S 21:26:14 10° ESE visible
21 May - 23:17:16 10° W 23:26:13 28° SSW 23:32:17 10° SSE visible
22 May - 14:55:50 10° SSE 15:04:25 16° SE 15:12:38 10° ESE daylight
22 May - 16:59:38 10° SSW 17:14:38 35° SSE 17:26:48 10° E daylight
22 May - 19:09:38 10° WSW 19:25:24 50° S 19:36:14 10° ESE daylight
22 May - 21:22:08 10° W 21:35:27 46° SSW 21:43:51 10° SE visible
22 May - 23:35:45 10° W 23:43:37 23° SW 23:49:13 10° SSE visible
23 May - 15:10:26 10° S 15:21:56 21° SE 15:32:44 10° E daylight
23 May - 17:16:35 10° SW 17:32:24 41° SSE 17:45:01 10° E daylight
23 May - 19:27:25 10° WSW 19:43:18 52° S 19:54:04 10° ESE daylight
23 May - 21:40:15 10° W 21:53:08 42° SSW 22:01:23 10° SE visible
23 May - 23:54:38 10° WSW 00:00:54 17° SW 00:05:41 10° S visible
24 May - 15:26:09 10° SSW 15:39:28 27° SE 15:51:52 10° E daylight
24 May - 17:33:51 10° SW 17:50:13 46° SSE 18:03:06 10° E daylight
24 May - 19:45:18 10° WSW 20:01:09 53° S 20:11:51 10° ESE daylight
24 May - 21:58:27 10° W 22:10:44 37° SSW 22:18:45 10° SE visible
25 May - 00:14:29 10° WSW 00:18:04 12° SW 00:21:09 10° SSW visible
25 May - 13:41:45 10° SSE 13:47:22 12° SE 13:53:03 10° ESE daylight
25 May - 15:42:30 10° SSW 15:57:04 33° SSE 16:10:31 10° E daylight
25 May - 17:51:19 10° WSW 18:08:05 51° SSE 18:21:05 10° E daylight
25 May - 20:03:17 10° WSW 20:19:00 52° S 20:29:33 10° ESE daylight
25 May - 22:16:47 10° W 22:28:12 32° SSW 22:35:56 10° SSE visible
26 May - 13:55:03 10° S 14:04:40 18° SE 14:14:34 10° ESE daylight
26 May - 15:59:16 10° SW 16:14:43 39° SSE 16:28:52 10° E daylight
26 May - 18:09:00 10° WSW 18:25:58 54° S 18:38:59 10° ESE daylight
26 May - 20:21:20 10° W 20:36:46 49° SSW 20:47:10 10° SE daylight
26 May - 22:35:18 10° W 22:45:33 26° SW 22:52:50 10° SSE visible
27 May - 14:10:16 10° S 14:22:02 24° SE 14:34:14 10° E daylight
27 May - 16:16:22 10° SW 16:32:26 45° SSE 16:47:03 10° E daylight
27 May - 18:26:47 10° WSW 18:43:53 56° S 18:56:50 10° ESE daylight
27 May - 20:39:28 10° W 20:54:28 45° SSW 21:04:40 10° SE daylight
27 May - 22:54:10 10° W 23:02:48 20° SW 23:09:18 10° S visible
28 May - 14:26:19 10° SSW 14:39:27 30° SE 14:53:11 10° E daylight
28 May - 16:33:44 10° SW 16:50:14 50° SSE 17:05:07 10° E daylight
28 May - 18:44:42 10° WSW 19:01:46 56° S 19:14:36 10° ESE daylight
28 May - 20:57:41 10° W 21:12:03 40° SSW 21:22:00 10° SE visible
28 May - 23:13:45 10° WSW 23:19:56 15° SW 23:25:00 10° SSW visible
